Content
SEND FEEDBACK

Daily
Averages
Monthly
Summary
United States of America

GRAFTON, ILLINOIS


Home > North America > United States > Illinois
Elevation: 400 feet     Latitude: 38 58N     Longitude: 090 26W

WEATHER
 
SELECT A DAY
Number of Records: 166,714;   Date Range: 10/8/98 - 8/28/14
 
SHARE

PRINT THIS DATA

[ ← Previous Day ]
WEATHER ALMANAC - JANUARY 7, 2013
[ Next Day → ]
[ °C ]   °F
Weather ElementAverageHighLow
Temperature30.4 °F45 °F (2:54 pm)19 °F (4:54 am)
Dewpoint23.6 °F28 °F (3:54 pm)17.1 °F (5:54 am)
Humidity77.6 %96 % (4:54 am)49 % (2:54 pm)
Barometer30.30 in30.41 in (1:54 am)30.17 in (10:54 pm)
Wind Speed6.4 mph11.5 mph (3:54 pm)
Weather ElementAverage
Visibility7.3 mi
Wind DirectionESE (111 °)

Weather ElementTotal
Precipitation---
Heating Degree Days33 (Base 65)
Averaged from 21 records on January 7, 2013
WEATHER CONDITIONS BREAKOUT
WIND DIRECTION BREAKOUT
WEATHER BY HOUR - JANUARY 7, 2013
[ °C ]   °F
Local TimeTemperatureDewpointHumidityBarometerVisibilityWind DirectionWind SpeedGust SpeedPrecipitationEventsConditions
1:54 AM21.9 °F19.0 °F89 %30.41 in6.0 miCalmClear
2:54 AM21.9 °F19.0 °F89 %30.41 in5.0 miCalmClear
3:54 AM21.0 °F19.0 °F92 %30.41 in4.0 miCalmClear
4:54 AM19.0 °F18.0 °F96 %30.40 in6.0 miENE (70°)3.5 mphClear
5:54 AM19.9 °F17.1 °F89 %30.38 in7.0 miEast (100°)5.8 mphClear
6:54 AM19.9 °F18.0 °F92 %30.40 in6.0 miEast (100°)5.8 mphClear
7:54 AM21.9 °F19.0 °F89 %30.40 in4.0 miEast (100°)5.8 mphClear
8:54 AM28.0 °F23.0 °F81 %30.40 in5.0 miESE (120°)4.6 mphHaze
9:54 AM34.0 °F25.0 °F70 %30.39 in7.0 miSouth (170°)9.2 mphClear
10:54 AM37.9 °F25.0 °F60 %30.37 in9.0 miSouth (180°)10.4 mphClear
11:54 AM39.9 °F25.0 °F55 %30.32 in10.0 miSouth (170°)10.4 mphClear
1:54 PM44.1 °F27.0 °F51 %30.25 in10.0 miSouth (180°)8.1 mphClear
2:54 PM45.0 °F27.0 °F49 %30.23 in10.0 miSSE (160°)10.4 mphClear
3:54 PM42.1 °F28.0 °F58 %30.22 in10.0 miSSE (150°)11.5 mphClear
5:54 PM35.1 °F28.0 °F76 %30.21 in8.0 miSE (140°)8.1 mphClear
6:54 PM33.1 °F27.0 °F78 %30.19 in7.0 miSE (130°)6.9 mphClear
7:54 PM32.0 °F27.0 °F82 %30.19 in7.0 miESE (110°)6.9 mphClear
8:54 PM30.9 °F27.0 °F85 %30.19 in7.0 miESE (110°)6.9 mphClear
9:54 PM30.9 °F26.1 °F82 %30.18 in9.0 miSE (140°)8.1 mphClear
10:54 PM30.9 °F26.1 °F82 %30.17 in9.0 miSE (130°)4.6 mphClear
11:54 PM28.9 °F25.0 °F85 %30.17 in7.0 miENE (70°)6.9 mphClear
Hourly data recorded from KSET, located miles away from Grafton, Illinois







STORIES FROM OUR PARTNERS